Weather in Swiecie

Poland     53°24′50″N   18°26′12″E
temp.,
°C
wind,
m/s
gust,
m/s
humid.,
%
clouds,
%
prec.,
mm/h
press.,
hPa
HPBL,
m
26 february, fri
fri2601:00+7w37940 0.0 1025184
04:00+5w389454 0.0 1024179
07:00+4wsw369077 0.0 1024153
10:00+6w4971100 0.0 1024485
13:00+8w6964100 0.0 10251013
16:00+7w41071100 0.0 1023920
19:00+6wnw51179100 0.0 1024920
22:00+5wnw61281100 0.0 1024918
27 february, sat
sat2701:00+3wnw5129069 0.0 1025457
04:00+3wnw4109124 0.0 1026448
07:00+1nw499314 0.0 1028282
10:00+5nw49740 0.0 1030662
13:00+7nnw58600 0.0 10311176
16:00+6nnw37640 0.0 1031983
19:00+3nw38820 0.0 1033239
22:00+1nw37880 0.0 1033169
28 february, sun
sun2801:00+1wnw358515 0.0 1034119
04:00+1w378198 0.0 1032174
07:00+1w258894 0.0 1033117
10:00+5wsw358419 0.0 1033299
13:00+6w468330 0.0 1033457
16:00+5wnw3587100 0.0 1032529
19:00+4nw2589100 0.0 1033288
22:00+3nw229273 0.0 103333
1 march, mon
mon101:00+1wnw229537 0.0 103429
04:000w22940 0.0 103433
07:00+1w22920 0.0 103534
10:00+5wsw24710 0.0 1035252
13:00+9wsw356213 0.0 1035363
16:00+9wsw36670 0.0 1033329
19:00+5wsw37840 0.0 1033134
22:00+4wsw49880 0.0 1033211
2 march, tue
tue201:00+3wsw38910 0.0 1033161
04:00+2wsw36920 0.0 1032153
07:00+1wsw36930 0.0 1032148
10:00+6w36740 0.0 1033290
13:00+10w35600 0.0 1032413
16:00+10w23610 0.0 1030118
19:00+6w22760 0.0 103022
22:00+4wnw12830 0.0 103022